Imperial, NE

12:17 AM MST on December 18, 2017 (GMT -0700)
Imperial Municipal

Weather History for KIML - September, 2012

Change the Weather History Date:

Thursday, September 6, 2012

  Actual Average Record
Temperature  
Mean Temperature 77 °F 68 °F  
Max Temperature 99 °F 83 °F 106 °F (2013)
Min Temperature 54 °F 54 °F 36 °F (1956)
Degree Days  
Heating Degree Days 0 2  
Month to date heating degree days 0 7  
Cooling Degree Days 12 5  
Month to date cooling degree days 70 33  
Year to date cooling degree days 1342 899  
Growing Degree Days 27 (Base 50)    
Moisture  
Dew Point 34 °F    
Average Humidity 36    
Maximum Humidity 67    
Minimum Humidity 5    
Precipitation  
Precipitation 0.00 in 0.06 in 0.98 in (1995)
Sea Level Pressure  
Sea Level Pressure 29.87 in    
Wind  
Wind Speed 9 mph (East)    
Max Wind Speed 33 mph    
Max Gust Speed 33 mph    
Visibility 10 miles    
Events      
T = Trace of Precipitation, MM = Missing Value Source: NWS Daily Summary

Daily Weather History Graph

Daily Weather History Graph

Search for Another Location

Airport or City:

Trip Planner

Search our weather history database for the weather conditions in past years. The results will help you decide how hot, cold, wet, or windy it might be!

Date:

Astronomy

Sep. 06, 2012 Rise Set
Actual Time 6:19 AM MDT 7:09 PM MDT
Civil Twilight 5:51 AM MDT 7:37 PM MDT
Nautical Twilight 5:18 AM MDT 8:09 PM MDT
Astronomical Twilight 4:44 AM MDT 8:43 PM MDT
Moon 10:19 PM MDT (9/6) 12:21 PM MDT (9/6)
Length of Visible Light 13h 45m
Length of Day
12h 50m
Waning Gibbous, 67% of the Moon is Illuminated
Sep 6
Waning Gibbous
Sep 8
Last Quarter
Sep 15
New
Sep 22
First Quarter
Sep 29
Full

Hourly Weather History & Observations

Time (MDT) Temp. Dew Point Humidity Pressure Visibility Wind Dir Wind Speed Gust Speed Precip Events Conditions
12:53 AM 59.0 °F 39.9 °F 49% 29.96 in 10.0 mi South 9.2 mph - N/A   Clear
1:53 AM 57.0 °F 39.9 °F 53% 29.97 in 10.0 mi SSE 6.9 mph - N/A   Clear
2:53 AM 62.1 °F 41.0 °F 46% 29.95 in 10.0 mi South 10.4 mph - N/A   Clear
3:53 AM 60.1 °F 43.0 °F 53% 29.94 in 10.0 mi South 8.1 mph - N/A   Clear
4:53 AM 55.9 °F 44.1 °F 64% 29.93 in 10.0 mi SE 8.1 mph - N/A   Clear
5:53 AM 55.0 °F 45.0 °F 69% 29.93 in 10.0 mi SSE 8.1 mph - N/A   Clear
6:53 AM 57.9 °F 46.9 °F 67% 29.92 in 10.0 mi SSE 8.1 mph - N/A   Clear
7:53 AM 62.1 °F 48.0 °F 60% 29.93 in 10.0 mi Calm Calm - N/A   Clear
8:53 AM 71.1 °F 48.0 °F 44% 29.91 in 10.0 mi South 8.1 mph - N/A   Partly Cloudy
9:53 AM 77.0 °F 48.0 °F 36% 29.90 in 10.0 mi SSW 8.1 mph - N/A   Clear
10:53 AM 84.9 °F 42.1 °F 22% 29.88 in 10.0 mi Calm Calm - N/A   Clear
11:53 AM 89.1 °F 37.9 °F 16% 29.85 in 10.0 mi Variable 6.9 mph - N/A   Clear
12:53 PM 91.9 °F 32.0 °F 12% 29.82 in 10.0 mi Calm Calm - N/A   Clear
1:53 PM 98.1 °F 19.0 °F 6% 29.79 in 10.0 mi West 16.1 mph 20.7 mph N/A   Clear
2:53 PM 99.0 °F 17.1 °F 5% 29.78 in 10.0 mi NW 16.1 mph 21.9 mph N/A   Clear
3:53 PM 98.1 °F 16.0 °F 5% 29.77 in 10.0 mi NNW 10.4 mph - N/A   Clear
4:53 PM 96.1 °F 16.0 °F 5% 29.77 in 10.0 mi NE 27.6 mph 33.4 mph N/A   Clear
5:00 PM 96.8 °F 15.8 °F 5% 29.87 in 10.0 mi Variable 3.5 mph 33.4 mph N/A   Squalls
5:53 PM 93.9 °F 24.1 °F 8% 29.76 in 10.0 mi NE 8.1 mph - N/A   Clear
6:53 PM 82.9 °F 26.1 °F 13% 29.78 in 10.0 mi NE 8.1 mph - N/A   Clear
7:53 PM 73.9 °F 28.0 °F 18% 29.79 in 10.0 mi NE 6.9 mph - N/A   Clear
8:53 PM 71.1 °F 30.9 °F 23% 29.80 in 10.0 mi NE 3.5 mph - N/A   Clear
9:53 PM 70.0 °F 34.0 °F 27% 29.85 in 10.0 mi NE 13.8 mph - N/A   Clear
10:53 PM 66.9 °F 37.9 °F 34% 29.89 in 10.0 mi NE 12.7 mph - N/A   Clear
11:53 PM 62.1 °F 39.9 °F 44% 29.91 in 10.0 mi North 8.1 mph - N/A   Clear